NUSTAR

Last updated on Thu Jul 03 2025 00:03:31 GMT+0000 (Coordinated Universal Time)

1 38358U 12031A 25183.58335648 .00005133 00000+0 30287-3 0 9999 2 38358 6.0267 127.0278 0009575 315.9691 117.3701 15.04009159 1305
UTC large
Height (km)
Speed (km/s)
/
Latitude / Longitude
Inclination (degrees)
Orbital Period (minutes)
Azimuth
Elevation
Range (km)
Doppler Factor

Next 0 passes for location: London (51.5072 / 0.1276)

Sorry there are no passes over London.